RYR3066 LEMD-EHEH

Flight info

Callsign RYR3066
Flight time 1h 58m
Altitude 34000
Route RBO N867 DGO/N0442F380 N858 ABRIX DCT ETPAR DCT BOKNO/N0443F390 DCT ELSIK
Aircraft B738/M-SDE3FGILRWY/SB1

Departure

Time 2026-05-06 13:37
Airport Adolfo Suárez Madrid–Barajas Airport (LEMD)

Arrival

Time 2026-05-06 15:35
Airport Eindhoven Airport (EHEH)
Time Latitude Longitude Altitude Speed Heading
2026-05-06 13:03 40.46663 -3.56849 1983 ft 0 kts 270°
2026-05-06 13:21 40.46663 -3.56832 1982 ft 2 kts 270°
2026-05-06 13:21 40.46663 -3.56813 1981 ft 2 kts 270°
2026-05-06 13:22 40.46663 -3.56792 1981 ft 2 kts 270°
2026-05-06 13:22 40.46663 -3.56773 1980 ft 2 kts 270°
2026-05-06 13:22 40.46663 -3.56753 1980 ft 2 kts 270°
2026-05-06 13:22 40.46663 -3.56733 1980 ft 2 kts 272°
2026-05-06 13:23 40.46660 -3.56714 1979 ft 2 kts 295°
2026-05-06 13:23 40.46652 -3.56697 1979 ft 2 kts 311°
2026-05-06 13:23 40.46641 -3.56684 1979 ft 2 kts 328°
2026-05-06 13:23 40.46628 -3.56676 1979 ft 2 kts 346°
2026-05-06 13:24 40.46614 -3.56673 1979 ft 0 kts
2026-05-06 13:24 40.46608 -3.56674 1979 ft 1 kts
2026-05-06 13:24 40.46607 -3.56674 1979 ft 0 kts
2026-05-06 13:26 40.46609 -3.56674 1979 ft 1 kts
2026-05-06 13:26 40.46662 -3.56669 1979 ft 12 kts
2026-05-06 13:27 40.46748 -3.56661 1978 ft 12 kts
2026-05-06 13:27 40.46802 -3.56597 1977 ft 12 kts 80°
2026-05-06 13:27 40.46886 -3.56559 1976 ft 18 kts
2026-05-06 13:27 40.47023 -3.56558 1974 ft 20 kts 351°
2026-05-06 13:28 40.47144 -3.56629 1975 ft 18 kts 323°
2026-05-06 13:28 40.47239 -3.56725 1977 ft 15 kts 322°
2026-05-06 13:28 40.47319 -3.56807 1980 ft 14 kts 322°
2026-05-06 13:28 40.47391 -3.56880 1981 ft 13 kts 323°
2026-05-06 13:29 40.47478 -3.56967 1982 ft 18 kts 323°
2026-05-06 13:29 40.47596 -3.57085 1986 ft 23 kts 322°
2026-05-06 13:29 40.47723 -3.57217 1988 ft 22 kts 322°
2026-05-06 13:29 40.47840 -3.57336 1993 ft 20 kts 322°
2026-05-06 13:30 40.47963 -3.57460 1995 ft 24 kts 322°
2026-05-06 13:30 40.48109 -3.57609 1999 ft 28 kts 322°
2026-05-06 13:30 40.48267 -3.57770 2002 ft 27 kts 322°
2026-05-06 13:30 40.48413 -3.57906 2006 ft 24 kts 329°
2026-05-06 13:31 40.48550 -3.58020 2009 ft 21 kts 328°
2026-05-06 13:31 40.48690 -3.58058 2010 ft 20 kts
2026-05-06 13:31 40.48817 -3.58057 2010 ft 13 kts
2026-05-06 13:31 40.48859 -3.57965 2007 ft 16 kts 91°
2026-05-06 13:32 40.48859 -3.57744 2002 ft 32 kts 90°
2026-05-06 13:32 40.48859 -3.57439 1995 ft 33 kts 90°
2026-05-06 13:32 40.48861 -3.57138 1987 ft 32 kts 90°
2026-05-06 13:32 40.48862 -3.56846 1977 ft 31 kts 90°
2026-05-06 13:33 40.48862 -3.56546 1967 ft 34 kts 90°
2026-05-06 13:33 40.48864 -3.56292 1959 ft 16 kts 88°
2026-05-06 13:33 40.48910 -3.56246 1957 ft 11 kts 358°
2026-05-06 13:33 40.49043 -3.56246 1957 ft 24 kts
2026-05-06 13:34 40.49209 -3.56247 1959 ft 23 kts
2026-05-06 13:34 40.49366 -3.56250 1959 ft 21 kts 360°
2026-05-06 13:34 40.49513 -3.56250 1960 ft 20 kts
2026-05-06 13:34 40.49614 -3.56250 1960 ft 12 kts
2026-05-06 13:35 40.49704 -3.56250 1960 ft 12 kts
2026-05-06 13:35 40.49800 -3.56251 1959 ft 13 kts 359°
2026-05-06 13:35 40.49915 -3.56253 1958 ft 16 kts
2026-05-06 13:35 40.49938 -3.56203 1957 ft 10 kts 86°
2026-05-06 13:36 40.49942 -3.56103 1955 ft 12 kts 89°
2026-05-06 13:36 40.49992 -3.55962 1951 ft 21 kts 34°
2026-05-06 13:36 40.50139 -3.55921 1949 ft 23 kts
2026-05-06 13:36 40.50464 -3.55922 1944 ft 82 kts
2026-05-06 13:37 40.51282 -3.55927 1938 ft 147 kts
2026-05-06 13:37 40.52422 -3.55929 2321 ft 168 kts
2026-05-06 13:37 40.53603 -3.55912 2970 ft 177 kts
2026-05-06 13:37 40.54891 -3.55692 3445 ft 198 kts 17°
2026-05-06 13:38 40.56216 -3.55115 4092 ft 207 kts 19°
2026-05-06 13:38 40.57628 -3.54504 4626 ft 223 kts 18°
2026-05-06 13:38 40.59111 -3.53873 5359 ft 229 kts 22°
2026-05-06 13:38 40.60511 -3.52814 6049 ft 237 kts 39°
2026-05-06 13:39 40.61774 -3.51336 6613 ft 251 kts 43°
2026-05-06 13:39 40.63092 -3.49737 7152 ft 266 kts 43°
2026-05-06 13:39 40.64500 -3.48104 7745 ft 279 kts 41°
2026-05-06 13:39 40.65968 -3.46455 8555 ft 282 kts 41°
2026-05-06 13:40 40.67474 -3.44776 9389 ft 285 kts 41°
2026-05-06 13:40 40.68969 -3.43111 10140 ft 289 kts 41°
2026-05-06 13:40 40.70533 -3.41365 10764 ft 299 kts 41°
2026-05-06 13:40 40.72123 -3.39587 11581 ft 302 kts 40°
2026-05-06 13:41 40.73747 -3.37766 12395 ft 306 kts 40°
2026-05-06 13:41 40.75371 -3.35944 13096 ft 313 kts 40°
2026-05-06 13:41 40.77039 -3.34077 13840 ft 318 kts 40°
2026-05-06 13:41 40.78738 -3.32168 14691 ft 321 kts 40°
2026-05-06 13:42 40.80438 -3.30252 15518 ft 325 kts 39°
2026-05-06 13:42 40.82161 -3.28308 16320 ft 329 kts 39°
2026-05-06 13:42 40.83934 -3.26410 17080 ft 333 kts 34°
2026-05-06 13:42 40.85917 -3.24856 17847 ft 334 kts 21°
2026-05-06 13:43 40.88146 -3.23949 18580 ft 335 kts
2026-05-06 13:43 40.90441 -3.23385 19300 ft 339 kts
2026-05-06 13:43 40.92780 -3.22900 20073 ft 340 kts
2026-05-06 13:43 40.95130 -3.22419 20767 ft 344 kts
2026-05-06 13:44 40.97479 -3.21925 21427 ft 348 kts
2026-05-06 13:44 40.99881 -3.21408 21976 ft 355 kts
2026-05-06 13:44 41.02354 -3.20863 22587 ft 359 kts
2026-05-06 13:44 41.04824 -3.20311 23163 ft 364 kts
2026-05-06 13:45 41.07326 -3.19749 23784 ft 367 kts
2026-05-06 13:45 41.12435 -3.18604 24981 ft 373 kts
2026-05-06 13:45 41.15000 -3.18025 25676 ft 373 kts
2026-05-06 13:46 41.17563 -3.17446 26195 ft 377 kts
2026-05-06 13:46 41.20173 -3.16858 26609 ft 383 kts
2026-05-06 13:46 41.22796 -3.16267 27210 ft 383 kts
2026-05-06 13:46 41.25427 -3.15673 27708 ft 386 kts
2026-05-06 13:47 41.28073 -3.15075 28179 ft 390 kts
2026-05-06 13:47 41.30748 -3.14467 28632 ft 393 kts
2026-05-06 13:47 41.33466 -3.13852 28960 ft 399 kts
2026-05-06 13:47 41.36215 -3.13231 29441 ft 401 kts
2026-05-06 13:48 41.38956 -3.12610 29934 ft 403 kts
2026-05-06 13:48 41.41731 -3.11980 30337 ft 406 kts
2026-05-06 13:48 41.44515 -3.11345 30753 ft 409 kts
2026-05-06 13:48 41.47336 -3.10702 31154 ft 411 kts
2026-05-06 13:49 41.50145 -3.10062 31577 ft 413 kts
2026-05-06 13:49 41.52970 -3.09416 31983 ft 415 kts
2026-05-06 13:49 41.55815 -3.08768 32304 ft 418 kts
2026-05-06 13:49 41.58684 -3.08114 32671 ft 421 kts
2026-05-06 13:50 41.61582 -3.07453 32996 ft 424 kts
2026-05-06 13:50 41.64507 -3.06787 33297 ft 427 kts
2026-05-06 13:50 41.67473 -3.06109 33696 ft 428 kts
2026-05-06 13:50 41.70377 -3.05442 33946 ft 430 kts
2026-05-06 13:51 41.76267 -3.04087 33969 ft 426 kts
2026-05-06 13:51 41.82074 -3.02746 33981 ft 423 kts
2026-05-06 13:52 41.87884 -3.01407 33967 ft 423 kts
2026-05-06 13:52 41.93666 -3.00077 33980 ft 422 kts
2026-05-06 13:53 41.99471 -2.98739 33990 ft 423 kts
2026-05-06 13:53 42.05265 -2.97398 33983 ft 422 kts
2026-05-06 13:54 42.11052 -2.96054 33988 ft 421 kts
2026-05-06 13:54 42.16857 -2.94705 33989 ft 420 kts
2026-05-06 13:55 42.22604 -2.93364 33971 ft 417 kts
2026-05-06 13:55 42.28328 -2.92032 33964 ft 419 kts
2026-05-06 13:56 42.34046 -2.90697 33967 ft 417 kts
2026-05-06 13:56 42.39769 -2.89359 33954 ft 416 kts
2026-05-06 13:57 42.45414 -2.87587 33962 ft 421 kts 15°
2026-05-06 13:57 42.50830 -2.84234 34182 ft 435 kts 24°
2026-05-06 13:58 42.53502 -2.82228 34437 ft 439 kts 25°
2026-05-06 13:58 42.56163 -2.80170 34656 ft 442 kts 26°
2026-05-06 13:58 42.58830 -2.78092 34938 ft 443 kts 26°
2026-05-06 13:58 42.61516 -2.76003 35135 ft 446 kts 26°
2026-05-06 13:59 42.64218 -2.73913 35379 ft 448 kts 25°
2026-05-06 13:59 42.66914 -2.71836 35655 ft 448 kts 25°
2026-05-06 13:59 42.69629 -2.69750 36038 ft 445 kts 25°
2026-05-06 13:59 42.72290 -2.67708 36363 ft 442 kts 25°
2026-05-06 14:00 42.74962 -2.65664 36537 ft 445 kts 25°
2026-05-06 14:00 42.77672 -2.63595 36743 ft 446 kts 25°
2026-05-06 14:00 42.80373 -2.61533 36996 ft 446 kts 25°
2026-05-06 14:00 42.83075 -2.59469 37182 ft 448 kts 25°
2026-05-06 14:01 42.85786 -2.57400 37457 ft 447 kts 25°
2026-05-06 14:01 42.88486 -2.55335 37709 ft 446 kts 25°
2026-05-06 14:01 42.91197 -2.53260 37953 ft 446 kts 26°
2026-05-06 14:01 42.93908 -2.51185 38003 ft 449 kts 26°
2026-05-06 14:02 42.99366 -2.46998 38017 ft 449 kts 25°
2026-05-06 14:02 43.04779 -2.42835 37983 ft 446 kts 26°
2026-05-06 14:03 43.10175 -2.38678 37978 ft 446 kts 26°
2026-05-06 14:03 43.15586 -2.34503 37989 ft 449 kts 26°
2026-05-06 14:04 43.21067 -2.30262 37985 ft 446 kts 26°
2026-05-06 14:04 43.26426 -2.26110 37998 ft 448 kts 26°
2026-05-06 14:05 43.31838 -2.21910 37991 ft 448 kts 26°
2026-05-06 14:05 43.37260 -2.17692 37999 ft 446 kts 26°
2026-05-06 14:06 43.42649 -2.13489 38035 ft 446 kts 26°
2026-05-06 14:06 43.48017 -2.09293 38021 ft 445 kts 27°
2026-05-06 14:07 43.53364 -2.05103 38008 ft 441 kts 26°
2026-05-06 14:07 43.58708 -2.00916 38040 ft 448 kts 27°
2026-05-06 14:08 43.64087 -1.96687 37998 ft 443 kts 27°
2026-05-06 14:08 43.69503 -1.92673 37986 ft 443 kts 24°
2026-05-06 14:09 43.75060 -1.88887 37991 ft 444 kts 23°
2026-05-06 14:09 43.80542 -1.85168 37971 ft 442 kts 23°
2026-05-06 14:10 43.86061 -1.81385 37976 ft 443 kts 23°
2026-05-06 14:10 43.91550 -1.77589 37972 ft 442 kts 24°
2026-05-06 14:11 43.97041 -1.73768 37985 ft 442 kts 24°
2026-05-06 14:11 44.02502 -1.69955 37966 ft 442 kts 24°
2026-05-06 14:12 44.07995 -1.66110 37962 ft 443 kts 24°
2026-05-06 14:12 44.13481 -1.62258 37955 ft 441 kts 24°
2026-05-06 14:13 44.18955 -1.58408 37954 ft 440 kts 24°
2026-05-06 14:13 44.24400 -1.54572 37967 ft 442 kts 24°
2026-05-06 14:14 44.29879 -1.50703 37958 ft 441 kts 24°
2026-05-06 14:14 44.35349 -1.46831 37965 ft 441 kts 24°
2026-05-06 14:15 44.40775 -1.42982 37962 ft 440 kts 24°
2026-05-06 14:15 44.46261 -1.39082 37956 ft 442 kts 24°
2026-05-06 14:16 44.51693 -1.35214 37948 ft 441 kts 24°
2026-05-06 14:16 44.57149 -1.31322 37930 ft 440 kts 25°
2026-05-06 14:17 44.62631 -1.27404 37970 ft 442 kts 25°
2026-05-06 14:17 44.68098 -1.23484 37964 ft 440 kts 25°
2026-05-06 14:18 44.73514 -1.19595 37943 ft 441 kts 25°
2026-05-06 14:18 44.78982 -1.15658 37958 ft 441 kts 25°
2026-05-06 14:19 44.84436 -1.11725 37918 ft 440 kts 25°
2026-05-06 14:19 44.89877 -1.07795 37931 ft 442 kts 25°
2026-05-06 14:20 44.95315 -1.03858 37928 ft 441 kts 25°
2026-05-06 14:20 45.00751 -0.99911 37930 ft 440 kts 25°
2026-05-06 14:21 45.06200 -0.95945 37914 ft 439 kts 25°
2026-05-06 14:21 45.11666 -0.91961 37931 ft 441 kts 25°
2026-05-06 14:22 45.17087 -0.88002 37906 ft 439 kts 25°
2026-05-06 14:22 45.22504 -0.83963 37914 ft 441 kts 27°
2026-05-06 14:23 45.27839 -0.79659 37926 ft 441 kts 28°
2026-05-06 14:23 45.33143 -0.75294 37929 ft 439 kts 28°
2026-05-06 14:24 45.38388 -0.70985 37922 ft 439 kts 28°
2026-05-06 14:24 45.43693 -0.66640 37933 ft 441 kts 28°
2026-05-06 14:25 45.49018 -0.62284 37940 ft 441 kts 28°
2026-05-06 14:25 45.54314 -0.57946 37929 ft 440 kts 27°
2026-05-06 14:26 45.59595 -0.53617 37923 ft 441 kts 28°
2026-05-06 14:26 45.64907 -0.49255 37929 ft 439 kts 28°
2026-05-06 14:27 45.70202 -0.44896 37937 ft 438 kts 28°
2026-05-06 14:27 45.75455 -0.40561 37929 ft 439 kts 28°
2026-05-06 14:28 45.80734 -0.36196 37916 ft 439 kts 27°
2026-05-06 14:28 45.86015 -0.31820 37924 ft 439 kts 28°
2026-05-06 14:29 45.91292 -0.27436 37935 ft 439 kts 28°
2026-05-06 14:29 45.96529 -0.23076 37923 ft 438 kts 28°
2026-05-06 14:30 46.01783 -0.18691 37892 ft 439 kts 28°
2026-05-06 14:30 46.07072 -0.14267 37928 ft 440 kts 29°
2026-05-06 14:31 46.12373 -0.09824 37901 ft 438 kts 28°
2026-05-06 14:31 46.17640 -0.05403 37916 ft 439 kts 29°
2026-05-06 14:32 46.22910 -0.00968 37911 ft 439 kts 29°
2026-05-06 14:32 46.28167 0.03467 37898 ft 440 kts 29°
2026-05-06 14:33 46.33448 0.07932 37897 ft 440 kts 29°
2026-05-06 14:33 46.38732 0.12409 37919 ft 440 kts 29°
2026-05-06 14:34 46.44005 0.16888 37908 ft 439 kts 29°
2026-05-06 14:34 46.49255 0.21357 37915 ft 438 kts 29°
2026-05-06 14:35 46.54528 0.25857 37924 ft 437 kts 29°
2026-05-06 14:35 46.59777 0.30345 37951 ft 440 kts 29°
2026-05-06 14:36 46.65035 0.34847 37945 ft 439 kts 29°
2026-05-06 14:36 46.70303 0.39373 37947 ft 440 kts 29°
2026-05-06 14:37 46.75532 0.43875 37947 ft 438 kts 29°
2026-05-06 14:37 46.80778 0.48397 37906 ft 439 kts 29°
2026-05-06 14:38 46.86015 0.52925 37897 ft 438 kts 29°
2026-05-06 14:38 46.91252 0.57463 37913 ft 439 kts 29°
2026-05-06 14:39 46.96522 0.62041 37903 ft 440 kts 29°
2026-05-06 14:39 47.01747 0.66593 37891 ft 439 kts 30°
2026-05-06 14:40 47.06984 0.71204 37886 ft 438 kts 31°
2026-05-06 14:40 47.12166 0.76044 37915 ft 440 kts 32°
2026-05-06 14:41 47.17285 0.80926 37911 ft 439 kts 32°
2026-05-06 14:41 47.22419 0.85821 37896 ft 439 kts 32°
2026-05-06 14:42 47.27548 0.90700 37909 ft 441 kts 32°
2026-05-06 14:42 47.32716 0.95614 38151 ft 445 kts 32°
2026-05-06 14:43 47.35303 0.98079 38346 ft 445 kts 32°
2026-05-06 14:43 47.37898 1.00553 38515 ft 446 kts 32°
2026-05-06 14:43 47.40488 1.03023 38694 ft 447 kts 32°
2026-05-06 14:43 47.43109 1.05526 38905 ft 448 kts 32°
2026-05-06 14:44 47.48323 1.10513 38905 ft 447 kts 32°
2026-05-06 14:45 47.56128 1.17997 38904 ft 448 kts 32°
2026-05-06 14:45 47.61339 1.23006 38896 ft 448 kts 32°
2026-05-06 14:46 47.66569 1.28048 38912 ft 449 kts 32°
2026-05-06 14:46 47.71763 1.33069 38911 ft 447 kts 32°
2026-05-06 14:47 47.76953 1.38099 38904 ft 447 kts 32°
2026-05-06 14:47 47.82153 1.43148 38908 ft 447 kts 32°
2026-05-06 14:48 47.87324 1.48181 38882 ft 446 kts 32°
2026-05-06 14:48 47.92551 1.53283 38910 ft 449 kts 32°
2026-05-06 14:49 47.97755 1.58371 38900 ft 450 kts 32°
2026-05-06 14:49 48.02986 1.63500 38915 ft 449 kts 32°
2026-05-06 14:50 48.08201 1.68627 38907 ft 448 kts 33°
2026-05-06 14:50 48.13372 1.73726 38914 ft 447 kts 33°
2026-05-06 14:51 48.18561 1.78849 38919 ft 447 kts 33°
2026-05-06 14:51 48.23742 1.83978 38915 ft 446 kts 33°
2026-05-06 14:52 48.28928 1.89128 38880 ft 447 kts 33°
2026-05-06 14:52 48.34089 1.94265 38908 ft 449 kts 33°
2026-05-06 14:53 48.39290 1.99454 38912 ft 451 kts 33°
2026-05-06 14:53 48.44504 2.04668 38898 ft 449 kts 33°
2026-05-06 14:54 48.49678 2.09856 38915 ft 448 kts 33°
2026-05-06 14:54 48.54886 2.15088 38913 ft 449 kts 33°
2026-05-06 14:55 48.60066 2.20308 38926 ft 447 kts 33°
2026-05-06 14:55 48.65214 2.25509 38916 ft 448 kts 33°
2026-05-06 14:56 48.70399 2.30758 38939 ft 451 kts 33°
2026-05-06 14:56 48.75628 2.36065 38904 ft 450 kts 33°
2026-05-06 14:57 48.80841 2.41369 38914 ft 451 kts 33°
2026-05-06 14:57 48.86008 2.46641 38934 ft 449 kts 33°
2026-05-06 14:58 48.91201 2.51954 38910 ft 448 kts 33°
2026-05-06 14:58 48.96373 2.57261 38926 ft 449 kts 33°
2026-05-06 14:59 49.01583 2.62618 38929 ft 448 kts 33°
2026-05-06 14:59 49.06788 2.67980 38912 ft 449 kts 33°
2026-05-06 15:00 49.11976 2.73343 38922 ft 451 kts 33°
2026-05-06 15:00 49.17173 2.78730 38907 ft 451 kts 34°
2026-05-06 15:01 49.22352 2.84111 38895 ft 451 kts 33°
2026-05-06 15:01 49.27501 2.89472 38881 ft 450 kts 33°
2026-05-06 15:02 49.32669 2.94868 38904 ft 450 kts 33°
2026-05-06 15:02 49.37835 3.00273 38894 ft 450 kts 33°
2026-05-06 15:03 49.43003 3.05697 38904 ft 453 kts 33°
2026-05-06 15:03 49.48183 3.11148 38879 ft 452 kts 33°
2026-05-06 15:04 49.53345 3.16591 38914 ft 452 kts 33°
2026-05-06 15:04 49.58508 3.22052 38905 ft 451 kts 33°
2026-05-06 15:05 49.63677 3.27535 38905 ft 453 kts 34°
2026-05-06 15:05 49.68844 3.33030 38901 ft 452 kts 34°
2026-05-06 15:06 49.74029 3.38558 38889 ft 452 kts 34°
2026-05-06 15:06 49.79212 3.44098 38889 ft 452 kts 34°
2026-05-06 15:07 49.84361 3.49615 38915 ft 453 kts 34°
2026-05-06 15:07 49.89504 3.55138 38911 ft 452 kts 34°
2026-05-06 15:08 49.94669 3.60704 38913 ft 452 kts 34°
2026-05-06 15:08 49.99809 3.66256 38683 ft 446 kts 34°
2026-05-06 15:08 50.02328 3.68983 38190 ft 447 kts 34°
2026-05-06 15:09 50.04881 3.71748 37720 ft 446 kts 35°
2026-05-06 15:09 50.07409 3.74491 37329 ft 444 kts 35°
2026-05-06 15:09 50.09922 3.77219 36926 ft 442 kts 35°
2026-05-06 15:09 50.12365 3.79876 36521 ft 440 kts 35°
2026-05-06 15:10 50.14895 3.82629 36079 ft 438 kts 35°
2026-05-06 15:10 50.17374 3.85331 35640 ft 437 kts 35°
2026-05-06 15:10 50.19873 3.88060 35157 ft 437 kts 36°
2026-05-06 15:10 50.22123 3.90521 34750 ft 435 kts 36°
2026-05-06 15:11 50.24559 3.93190 34239 ft 435 kts 36°
2026-05-06 15:11 50.26979 3.95845 33669 ft 436 kts 36°
2026-05-06 15:11 50.29472 3.98582 32954 ft 438 kts 36°
2026-05-06 15:11 50.31960 4.01317 32266 ft 439 kts 36°
2026-05-06 15:12 50.34444 4.04052 31482 ft 441 kts 36°
2026-05-06 15:12 50.36860 4.06711 30681 ft 443 kts 36°
2026-05-06 15:12 50.39381 4.09487 29785 ft 445 kts 35°
2026-05-06 15:12 50.41919 4.12283 28852 ft 447 kts 35°
2026-05-06 15:13 50.44462 4.15089 27848 ft 450 kts 35°
2026-05-06 15:13 50.46940 4.17827 26859 ft 453 kts 35°
2026-05-06 15:13 50.49498 4.20660 25809 ft 456 kts 35°
2026-05-06 15:13 50.52084 4.23529 24927 ft 454 kts 35°
2026-05-06 15:14 50.54665 4.26397 24276 ft 447 kts 35°
2026-05-06 15:14 50.57194 4.29213 23796 ft 437 kts 35°
2026-05-06 15:14 50.59644 4.31944 23308 ft 429 kts 35°
2026-05-06 15:14 50.62060 4.34642 22800 ft 421 kts 34°
2026-05-06 15:15 50.64419 4.37280 22286 ft 415 kts 35°
2026-05-06 15:15 50.66747 4.39887 21879 ft 405 kts 34°
2026-05-06 15:15 50.69004 4.42418 21613 ft 393 kts 34°
2026-05-06 15:15 50.71189 4.44871 21349 ft 382 kts 34°
2026-05-06 15:16 50.73328 4.47272 21086 ft 371 kts 34°
2026-05-06 15:16 50.75412 4.49616 20812 ft 361 kts 34°
2026-05-06 15:16 50.77420 4.51875 20554 ft 352 kts 34°
2026-05-06 15:16 50.79394 4.54097 20289 ft 343 kts 34°
2026-05-06 15:17 50.81292 4.56233 20026 ft 336 kts 34°
2026-05-06 15:17 50.83195 4.58373 19763 ft 331 kts 34°
2026-05-06 15:17 50.85054 4.60468 19506 ft 329 kts 34°
2026-05-06 15:17 50.86907 4.62560 19243 ft 328 kts 34°
2026-05-06 15:18 50.88776 4.64665 18984 ft 328 kts 34°
2026-05-06 15:18 50.90628 4.66755 18728 ft 326 kts 35°
2026-05-06 15:18 50.92467 4.68838 18474 ft 325 kts 35°
2026-05-06 15:18 50.94295 4.70911 18216 ft 323 kts 35°
2026-05-06 15:19 50.96114 4.72975 17958 ft 322 kts 35°
2026-05-06 15:19 50.97921 4.75028 17706 ft 321 kts 35°
2026-05-06 15:19 50.99734 4.77095 17452 ft 319 kts 35°
2026-05-06 15:19 51.01528 4.79158 17197 ft 318 kts 35°
2026-05-06 15:20 51.03299 4.81199 16961 ft 314 kts 35°
2026-05-06 15:20 51.05059 4.83211 16653 ft 310 kts 34°
2026-05-06 15:20 51.06810 4.85199 16274 ft 308 kts 34°
2026-05-06 15:20 51.08540 4.87171 15909 ft 307 kts 34°
2026-05-06 15:21 51.10267 4.89153 15377 ft 312 kts 34°
2026-05-06 15:21 51.12065 4.91210 14647 ft 320 kts 34°
2026-05-06 15:21 51.13888 4.93294 13924 ft 327 kts 34°
2026-05-06 15:21 51.15725 4.95402 13549 ft 325 kts 34°
2026-05-06 15:22 51.17547 4.97501 13088 ft 322 kts 34°
2026-05-06 15:22 51.19340 4.99606 12660 ft 319 kts 37°
2026-05-06 15:22 51.21060 5.01889 12172 ft 318 kts 39°
2026-05-06 15:22 51.22677 5.04193 11721 ft 316 kts 41°
2026-05-06 15:23 51.24303 5.06574 11265 ft 313 kts 41°
2026-05-06 15:23 51.25901 5.08921 10821 ft 311 kts 41°
2026-05-06 15:23 51.27479 5.11231 10387 ft 308 kts 41°
2026-05-06 15:23 51.29031 5.13491 10242 ft 295 kts 41°
2026-05-06 15:24 51.30518 5.15655 10147 ft 283 kts 40°
2026-05-06 15:24 51.31966 5.17756 9775 ft 281 kts 40°
2026-05-06 15:24 51.33399 5.19836 9404 ft 278 kts 40°
2026-05-06 15:24 51.34827 5.21910 9050 ft 276 kts 40°
2026-05-06 15:25 51.36233 5.23953 8708 ft 273 kts 40°
2026-05-06 15:25 51.37641 5.26003 8326 ft 271 kts 40°
2026-05-06 15:25 51.39029 5.28027 7970 ft 269 kts 40°
2026-05-06 15:25 51.40395 5.30018 7603 ft 267 kts 40°
2026-05-06 15:26 51.41754 5.32002 7427 ft 257 kts 40°
2026-05-06 15:26 51.43041 5.33883 7377 ft 244 kts 40°
2026-05-06 15:26 51.44312 5.35547 7339 ft 229 kts 31°
2026-05-06 15:26 51.45739 5.36458 7288 ft 215 kts
2026-05-06 15:27 51.47147 5.35947 7091 ft 211 kts 325°
2026-05-06 15:27 51.47973 5.34044 6817 ft 217 kts 287°
2026-05-06 15:27 51.47934 5.31608 6506 ft 225 kts 255°
2026-05-06 15:27 51.47306 5.29298 6242 ft 226 kts 246°
2026-05-06 15:28 51.46612 5.27055 5968 ft 226 kts 246°
2026-05-06 15:28 51.45920 5.24814 5696 ft 226 kts 246°
2026-05-06 15:28 51.45221 5.22536 5417 ft 226 kts 246°
2026-05-06 15:28 51.44505 5.20344 5160 ft 226 kts 237°
2026-05-06 15:29 51.43333 5.18620 4885 ft 229 kts 212°
2026-05-06 15:29 51.41935 5.17394 4630 ft 229 kts 210°
2026-05-06 15:29 51.40533 5.16238 4379 ft 228 kts 203°
2026-05-06 15:29 51.39056 5.15602 4351 ft 214 kts 181°
2026-05-06 15:30 51.37666 5.16060 4254 ft 199 kts 150°
2026-05-06 15:30 51.36554 5.17296 3977 ft 195 kts 133°
2026-05-06 15:30 51.35664 5.18928 3675 ft 192 kts 120°
2026-05-06 15:30 51.34948 5.20675 3547 ft 180 kts 115°
2026-05-06 15:31 51.34473 5.22358 3383 ft 160 kts 98°
2026-05-06 15:31 51.34465 5.24099 2923 ft 155 kts 69°
2026-05-06 15:31 51.34938 5.25581 2531 ft 150 kts 45°
2026-05-06 15:32 51.36496 5.27698 1976 ft 147 kts 38°
2026-05-06 15:32 51.37310 5.28696 1769 ft 147 kts 36°
2026-05-06 15:32 51.38134 5.29667 1558 ft 143 kts 36°
2026-05-06 15:32 51.38905 5.30564 1391 ft 136 kts 35°
2026-05-06 15:33 51.39672 5.31441 1187 ft 134 kts 36°
2026-05-06 15:33 51.40439 5.32303 1006 ft 135 kts 33°
2026-05-06 15:33 51.41216 5.33146 823 ft 136 kts 33°
2026-05-06 15:33 51.41991 5.34034 640 ft 138 kts 38°
2026-05-06 15:34 51.42757 5.34940 446 ft 137 kts 32°
2026-05-06 15:34 51.43560 5.35834 245 ft 138 kts 33°
2026-05-06 15:34 51.44338 5.36692 85 ft 131 kts 34°
2026-05-06 15:34 51.44949 5.37378 83 ft 80 kts 35°
2026-05-06 15:35 51.45343 5.37822 83 ft 61 kts 35°
2026-05-06 15:35 51.45671 5.38187 83 ft 51 kts 33°
2026-05-06 15:35 51.45878 5.38425 83 ft 25 kts 37°
2026-05-06 15:35 51.45908 5.38463 83 ft 0 kts 54°
2026-05-06 15:36 51.45905 5.38494 83 ft 5 kts 109°
2026-05-06 15:36 51.45853 5.38639 83 ft 21 kts 124°
2026-05-06 15:36 51.45787 5.38795 83 ft 9 kts 104°
2026-05-06 15:36 51.45828 5.38875 83 ft 9 kts 35°
2026-05-06 15:37 51.45848 5.38950 83 ft 8 kts 116°
2026-05-06 15:37 51.45826 5.39004 83 ft 2 kts 124°
2026-05-06 15:37 51.45822 5.39014 83 ft 0 kts 124°